Regional Weather Roundup
Issued by NWS

Home | Current Version | Previous Version | Text Only | Print | Product List | Glossary Off
Versions: 1 2 3 4 5 6 7 8 9 10 11 12 13 14 15 16 17 18 19 20 21 22 23 24 25 26 27 28 29 30 31 32 33 34 35 36 37 38 39 40 41 42 43 44 45 46 47 48 49 50

012
ASUS43 KMKX 262311
RWRWI

WISCONSIN REGIONAL WEATHER ROUNDUP
NATIONAL WEATHER SERVICE MILWAUKEE/SULLIVAN WI
600 PM CDT SUN MAR 26 2017

NOTE: "FAIR" INDICATES FEW OR NO CLOUDS BELOW 12,000 FEET WITH NO
SIGNIFICANT WEATHER AND/OR OBSTRUCTIONS TO VISIBILITY.

WIZ001-002-006>008-014>016-023>028-270000-
NORTHWEST WISCONSIN

CITY           SKY/WX    TMP DP  RH WIND       PRES   REMARKS
SUPERIOR ARPT  CLOUDY    34  33  96 NE6       29.96R WCI  29
ASHLAND        CLOUDY    34  33  96 NE8       29.94R FOG     WCI  27
HAYWARD        CLOUDY    40  34  79 N8        29.90S WCI  34
SIREN          DRIZZLE   39  36  91 N6        29.92R WCI  34
CUMBERLAND     CLOUDY    39  36  87 N6        29.89R WCI  35
RICE LAKE      CLOUDY    42  38  87 CALM      29.90S
CHETEK         CLOUDY    41  38  89 NW3       29.89S
LADYSMITH      CLOUDY    42  38  83 N6        29.89S
EAU CLAIRE     CLOUDY    43  38  82 N3        29.88S
MENOMONIE      CLOUDY    44  38  82 NW6       29.89S
NEW RICHMOND   CLOUDY    40  39  95 N6        29.91R
OSCEOLA        CLOUDY    42  37  82 N6        29.94S
$$

WIZ003>005-009-010-017-018-270000-
NORTH CENTRAL WISCONSIN

CITY           SKY/WX    TMP DP  RH WIND       PRES   REMARKS
MANITOWISH WTR CLOUDY    36  36 100 N5        29.87R WCI  32
ARBOR VITAE    RAIN      39  37  93 N8        29.86R WCI  34
WOODRUFF       RAIN      39  37  93 N8        29.86R WCI  34
RHINELANDER    LGT RAIN  39  38  96 CALM      29.86R FOG
EAGLE RIVER    LGT RAIN  37  37 100 CALM      29.86R
LAND O LAKES   DRIZZLE   38  37  96 N7        29.88R WCI  32
PHILLIPS       CLOUDY    40  37  89 NW3       29.86S
TOMAHAWK       LGT RAIN  38  37  95 CALM      29.87R
MEDFORD        HVY RAIN  38  38  97 CALM      29.86R
MERRILL        LGT RAIN  39  39 100 CALM      29.86S
$$

WIZ029-030-035-036-043>047-270000-
CENTRAL WISCONSIN

CITY           SKY/WX    TMP DP  RH WIND       PRES   REMARKS
WAUSAU         LGT RAIN  39  38  96 CALM      29.84S FOG
MOSINEE        LGT RAIN  37  37 100 VRB3      29.87R
MARSHFIELD     LGT RAIN  39  37  92 NW6       29.85R FOG     WCI  35
STEVENS POINT  LGT RAIN  37  37 100 CALM      29.86S
WAUPACA        DRIZZLE   41  40  94 CALM      29.86S
WAUTOMA        LGT RAIN  40  38  93 N5        29.86R
WISC RAPIDS    LGT RAIN  40  39  97 N3        29.87S
CAMP DOUGLAS   CLOUDY    39  39  99 NW3       29.87R
$$

WIZ011>013-019>022-031-037>040-048>050-270000-
NORTHEAST WISCONSIN

CITY           SKY/WX    TMP DP  RH WIND       PRES   REMARKS
ANTIGO         DRIZZLE   36  36 100 CALM      29.85S
SHAWANO        HVY RAIN  39  37  93 N3        29.87R
OCONTO         CLOUDY    37  37  98 NE5       29.86S WCI  33
STURGEON BAY   MIX PCPN  36  36 100 N6        29.86S FOG     WCI  31
GREEN BAY      CLOUDY    38  38 100 NE8       29.86R FOG     WCI  32
MANITOWOC      LGT RAIN  40  39  97 N6        29.85R FOG
APPLETON       LGT RAIN  39  39 100 N8        29.83S WCI  34
CLINTONVILLE   HVY RAIN  37  36  93 N5        29.86S WCI  34
OSHKOSH        CLOUDY    40  38  93 N6        29.84R
$$

WIZ032>034-041-042-053>061-270000-
SOUTHWEST WISCONSIN

CITY           SKY/WX    TMP DP  RH WIND       PRES   REMARKS
LA CROSSE      CLOUDY    42  40  92 W7        29.88R FOG
SPARTA         CLOUDY    40  40  99 N5        29.88S
VIROQUA        CLOUDY    41  41 100 N3        29.85S
BOSCOBEL       CLOUDY    46  43  89 CALM      29.86S
PRAIRIE DU CHI CLOUDY    44  41  91 NW6       29.87R
PLATTEVILLE    CLOUDY    46  46 100 N9        29.83F
$$

WIZ056-057-062-063-064-067-068-270000-
SOUTH CENTRAL WISCONSIN

CITY           SKY/WX    TMP DP  RH WIND       PRES   REMARKS
REEDSBURG      DRIZZLE   41  41 100 NW3       29.86R
BARABOO/DELLS  RAIN      40  39  95 CALM      29.86R
LONE ROCK      CLOUDY    44  41  89 CALM      29.86S FOG
MINERAL POINT  FOG       45  45 100 N6        29.84S VSB 1
MADISON        CLOUDY    43  41  93 N6        29.84R FOG
MIDDLETON      CLOUDY    44  44 100 NW6       29.85R
WATERTOWN      CLOUDY    47  47 100 N3        29.82S
MONROE         CLOUDY    48  46  93 N5        29.83R FOG
JANESVILLE     CLOUDY    52  52 100 NW5       29.82R FOG
$$

WIZ051-052-058>065-066-070>072-270000-
SOUTHEAST WISCONSIN

CITY           SKY/WX    TMP DP  RH WIND       PRES   REMARKS
MILWAUKEE      CLOUDY    43  40  89 NE5       29.83R FOG
WAUKESHA       NOT AVBL
MILWAUKEE/TIMM LGT RAIN  43  39  87 CALM      29.83S
RACINE         CLOUDY    44  41  89 N6        29.84R FOG
KENOSHA        CLOUDY    51  49  92 CALM      29.82R FOG
FOND DU LAC    LGT RAIN  41  38  89 N6        29.84R FOG
SHEBOYGAN      CLOUDY    40  39  97 N6        29.83S FOG
WEST BEND      DRIZZLE   43  43 100 CALM      29.83S
JUNEAU         RAIN      42  42  97 NW3       29.84S
$$

LSZ147-162-270000-
LAKE SUPERIOR

STATION/POSITION TIME  TEMP    WIND        PRES    WAVE
                       AIR SEA DIR/SP/G            HT/PER
                 (UTC) (F)     (DEG/KT/KT) (MB)    (FT/S)
DEVILS ISLAND    2200   34      40/  8/  9 1014.7F
PORT WING        2240   34      30/  6/  8 1014.2S
SAXON HARBOR     2240   34      10/  4/  5 1013.5S
$$

LMZ867-665-643>646-270000-
LAKE MICHIGAN

STATION/POSITION TIME  TEMP    WIND        PRES    WAVE
                       AIR SEA DIR/SP/G            HT/PER
                 (UTC) (F)     (DEG/KT/KT) (MB)    (FT/S)
CHAMBERS ISLAND  2230   33     360/  7/ 11 1011.2S
NORTHPORT PIER   2240   35        CALM     1011.5R
SISTER BAY       2136   37      30/  5/  8   N/A
KEWAUNEE LAKESHO 2248   38      30/  5/  8 1010.3F
SHEBOYGAN LAKESH 2300   37     340/ 11/ 12 1010.7R
PORT WASHINGTON  2230   40      40/  3/  6 1011.2R
MILWAUKEE LAKESH 2250   40     360/  7/  8   N/A
KENOSHA   LAKESH 2300   38      30/  4/  4 1010.2
$$

TC  - TEMPERATURE IN CELSIUS
VSB - VISIBILITY IN STATUTE MILES
WCI - WIND CHILL INDEX
HX  - HEAT INDEX





USA.gov is the U.S. government's official web portal to all federal, state and local government web resources and services.